RAINCUBE (43548 NORAD) Tracking and Keplerian Element Data

This shows tracking and keplerian element data for the satellite.

Feedback or suggestion? Click here.




ElementValue
Catalog43548
NameRAINCUBE
Epoch Orbit4462
Epoch Day115.560768
Epoch Year2019
RAAN255.2873
Inclination51.6372
Eccentricity0.0005613
Argument of Perigee291.9002
Mean Anonmoly68.1394
Mean Motion15.60177089
Decay Rate0.00012969
L11 43548U 98067NW 19115.56076800 .00012969 00000-0 16220-3 0 9994
L22 43548 51.6372 255.2873 0005613 291.9002 68.1394 15.60177089 44621

Live tracking and technical data element details for RAINCUBE (NORAD 43548). RAINCUBE can be tracked NOW for your location showing map with azimuth and elevation plus other details from your city location.

Track the satellite on the map from your city or location and see movement details for azimuth, elevation, latitude, longitude, range, height, and movement on the map or in text.







IsCatalogInMostPopularTable: catalog: 43548, numindb: 141
Update: records affected: 1



GetName: 43548 RAINCUBE

Hit Count: updated at: Fri, 26 Apr 2019 15:37:30 GMT